Location: Aranbee
(34.0885°N, 118.2342°W)
Time: 09:09:48
(UTC+00:00)

Courier 1B Rocket - Pass Details

Date: 03 December 2020
Orbit: 920 x 1202 km, 28.2° (Epoch: 27 January)

Event Time Altitude Azimuth Distance (km) Brightness Sun altitude
Rises 10:32:00 0° 227° (SW) 3,942 - -51.2°
Reaches altitude 10° 10:35:04 10° 217° (SW) 3,023 - -50.6°
Maximum altitude 10:41:32 32° 158° (SSE) 1,910 - -49.2°
Exits shadow 10:45:29 21° 114° (ESE) 2,416 7.3 -48.4°
Drops below altitude 10° 10:48:13 10° 99° (E) 3,127 8.1 -47.8°
Sets 10:51:26 0° 90° (E) 4,096 9.0 -47.2°
